Location: Hokitika
(42.7170°S, 170.9670°E)
Time: 16:08:15
(UTC+12:00)

USA 234 - Pass Details

Date: 24 January 2019
Orbit: 1101 x 1107 km, 123.0° (Epoch: 19 April)

Event Time Altitude Azimuth Distance (km) Brightness Sun altitude
Rises 21:47:20 0° 132° (SE) 3,949 6.0 -7.0°
Reaches altitude 10° 21:49:55 10° 138° (SE) 2,988 5.5 -7.4°
Maximum altitude 21:56:09 47° 208° (SSW) 1,443 4.4 -8.3°
Drops below altitude 10° 22:02:21 10° 279° (W) 2,971 6.2 -9.2°
Sets 22:04:55 0° 284° (WNW) 3,925 6.8 -9.6°
